Simultaneous Nadir Overpasses (SNOs) Predictions

Prediction of SNOs between GOES-14 and NPP Satellite Orbit:

Table of predicted SNOs for the next 14.0 days since TLE Epoch: 6/25/2022
Index Date Time (GOES-14) GOES-14 Lat,Lon NPP Lat,Lon Distance(km) Time Diff (sec)
1 06/25/2022 20:33:25 0.15,-104.82 -0.41,-107.30 282.67 80
2 06/26/2022 20:17:22 0.14,-104.82 0.61,-102.77 234.02 80
3 06/28/2022 08:36:30 -0.17,-104.54 0.64,-108.03 398.47 80
4 06/29/2022 08:20:27 -0.16,-104.55 -0.38,-103.51 118.33 80
5 06/30/2022 20:39:46 0.19,-104.84 -0.73,-108.83 455.92 80
6 07/01/2022 20:23:42 0.18,-104.85 0.29,-104.31 60.94 80
7 07/04/2022 08:24:07 -0.19,-104.57 -0.06,-105.04 54.40 80
8 07/05/2022 08:08:04 -0.18,-104.58 -1.08,-100.52 462.66 80
9 07/06/2022 20:27:23 0.21,-104.87 -0.02,-105.85 111.19 80
10 07/07/2022 20:11:20 0.19,-104.88 1.01,-101.32 405.79 80
